Location: Krakow
(50.0830°N, 19.9170°E)
Time: 16:22:41
(UTC+02:00)

Courier 1B - Pass Details

Date: 24 March 2026
Orbit: 962 x 1209 km, 28.3° (Epoch: 19 April)

Event Time Altitude Azimuth Distance (km) Brightness Sun altitude
Rises 06:29:56 0° 222° (SW) 4,099 10.4 8.0°
Reaches altitude 10° 06:34:59 10° 195° (SSW) 3,115 10.1 8.8°
Maximum altitude 06:37:48 12° 173° (S) 2,924 10.3 9.3°
Drops below altitude 10° 06:40:35 10° 151° (SSE) 3,075 10.8 9.7°
Sets 06:45:28 0° 124° (SE) 3,985 12.1 10.5°
